星链-35402(STARLINK-35402)

导读

STARLINK-35402是美国SpaceX星链互联网星座中的一颗卫星,于2025年10月19日发射入轨,隶属于美国SpaceX公司打造的星链项目。星链项目旨在构建全球卫星互联网,该卫星承担着为全球偏远地区、海洋空域等提供低延迟宽带互联网接入服务的任务,进一步扩充了星链星座的服务覆盖能力。

Basic Information
目录编号:
66079
目录名称:
STARLINK-35402
国际标识:
2025-235X
轨道中心:
EARTH
卫星名称:
星链-35402
卫星全名:
星链-35402(STARLINK-35402)
卫星状态:
在轨 (已飞行320 天)
发射日期:
2025-10-19 UTC
国别 :
美国 (US)
星等 :
--
Orbit Information
数据来源 国际轨道数据
星历时间: 2026-09-03T14:07:09+0800
22小时前
查看轨道信息
半长轴: 6840.785km
偏心率: 0.0001146
轨道倾角: 53.159°
近地点辐角 98.276°
升交点赤经 140.059°
平近点角 261.837°
近地点: 461.864km
远地点: 463.432km
周期: 93.847分钟
每日圈数: 15.344188
Detailed Information
固有亮度:
5
最大亮度:
2.5
卫星平台:
Starlink V1.0
覆盖范围:
全球
运营商:
太空探索技术公司
运营商所在国:
美国
制造商(研发单位):
太空探索技术公司
制造商所在国:
美国
使用方式:
暂无
Satellite Introduction
Starlink 计划是 SpaceX 推出的全球卫星互联网项目,通过发射低轨道卫星,为全球尤其是偏远地区提供高速、低延迟的互联网服务。自 2019 年起,Starlink 已部署数千颗卫星,旨在缩小全球数字鸿沟,推动互联网普及。该项目还为军事、航空等行业提供通信支持,带来广泛经济效益。
2D Orbit Map
3D Orbit Map
Orbit Altitude Analysis Chart
Orbit Inclination Analysis Chart
Orbit Comprehensive Analysis Chart
View Comprehensive Chart
Conjunction Data List
Event ID Objects TCA Miss Dist (km) Collision Risk Probability Collision Risk Index (CRI) Action
CDM_260904-192006-013706-607923
2026-09-04T
19:20:44+0000
0.443 km
远距离
1.771928E-4 高风险 0.8
CDM_260904-104406-013706-607923
2026-09-04T
10:44:53+0000
0.668 km
远距离
6.081354E-5 中风险 0.71
CDM_260905-121906-202406-607921
2026-09-05T
12:19:28+0000
1.502 km
极远距离
4.278641E-6 低风险 0.48
CDM_260830-120504-873706-607921
2026-08-30T
12:05:45+0000
2.048 km
极远距离
2.684036E-6 低风险 0.44
CDM_260904-032205-300706-607921
2026-09-04T
03:22:15+0000
2.493 km
极远距离
1.50298E-6 低风险 0.39
CDM_260905-020106-387806-607921
2026-09-05T
02:01:13+0000
1.764 km
极远距离
1.356476E-6 低风险 0.38
CDM_260903-170905-210806-607921
2026-09-03T
17:09:57+0000
2.885 km
极远距离
1.234955E-6 低风险 0.37
CDM_260903-143005-178106-607922
2026-09-03T
14:30:23+0000
2.931 km
极远距离
1.112813E-6 低风险 0.36
CDM_260904-091106-013706-607923
2026-09-04T
09:11:05+0000
2.646 km
极远距离
1.052038E-6 低风险 0.35